Terminal Aerodrome Forecast
Issued by NWS Flagstaff, AZ

Home | Current Version | Previous Version | Text Only | Print | Product List | Glossary On
Versions: 1 2 3 4 5 6 7 8 9 10 11 12 13
000
FTUS45 KFGZ 172300
TAFINW
TAF
KINW 172324Z 1800/1824 10009KT P6SM SKC
     FM180300 VRB05KT P6SM SCT250
     FM181800 19019G27KT P6SM OVC150=

USA.gov is the U.S. government's official web portal to all federal, state and local government web resources and services.